OneWeb SL0092

operational
NORAD ID: 45437 Int'l Des: 2020-020 Owner: ONEWEB Country: UK Constellation: oneweb
LEOCIRCULARPOLARONEWEB_TYPE

About OneWeb SL0092

Description loading...

Live Position

Loading 3D Globe...

Upcoming Passes

Altitude History

Altitude vs Time

uPlot chart will show altitude changes over time

Two-Line Element Set

1 45437U 20020P 26034.49933931 .00000123 00000-0 31227-3 0 9997
2 45437 87.8818 47.6643 0002171 87.6338 272.5038 13.11413331285262
Epoch: Feb 3, 2026 • Age: 14 hours

Current Status

Altitude 1248.0 km
Velocity 7.23 km/s
Sub-Earth Point -83.96°S, 81.45°E
Launch Date Mar 21, 2020
Age 5.8 years
Type internet

Technical Details

Classification Payload
Mass 148.00 kg
Dry Mass 140.00 kg
Total Mass 148.00 kg
Length 1.30 m
Diameter 1.00 m
Span 5.00 m
Shape Trapezoid+2 pan
Manufacturer ONEWUS
Bus Type ARROW
Phase Status In Orbit
Owner/State ONEWEB/UK

Large Constellations

Loading constellations...